owner,sensor,date,latitude,longitude,vertical_datum,wind_speed,wind_to_direction,wind_speed_of_gust,qcFlag 
TCOON,ioos:station:TCOON:003:1,2009-06-01T00:00:00Z,26.8015,-97.4706,0.0,6.8,135.0,7.9,'11111222,11111222,11111222' 
TCOON,ioos:station:TCOON:003:1,2009-06-01T02:00:00Z,26.8015,-97.4706,0.0,7.1,137.0,8.1,'11111222,11111222,11111222' 
TCOON,ioos:station:TCOON:003:1,2009-06-01T03:00:00Z,26.8015,-97.4706,0.0,5.5,145.0,6.5,'11111222,11111222,11111222' 
TCOON,ioos:station:TCOON:003:1,2009-06-01T04:00:00Z,26.8015,-97.4706,0.0,5.7,144.0,6.8,'11111222,11111222,11111222' 
TCOON,ioos:station:TCOON:003:1,2009-06-01T05:00:00Z,26.8015,-97.4706,0.0,5.9,150.0,7.0,'11111222,11111222,11111222' 
TCOON,ioos:station:TCOON:003:1,2009-06-01T06:00:00Z,26.8015,-97.4706,0.0,5.0,149.0,5.8,'11111222,11111222,11111222' 
TCOON,ioos:station:TCOON:003:1,2009-06-01T07:00:00Z,26.8015,-97.4706,0.0,5.6,158.0,6.3,'11111222,11111222,11111222' 
TCOON,ioos:station:TCOON:003:1,2009-06-01T08:00:00Z,26.8015,-97.4706,0.0,7.1,163.0,8.1,'11111222,11111222,11111222' 
TCOON,ioos:station:TCOON:003:1,2009-06-01T09:00:00Z,26.8015,-97.4706,0.0,7.2,155.0,8.2,'11111222,11111222,11111222' 
TCOON,ioos:station:TCOON:003:1,2009-06-01T10:00:00Z,26.8015,-97.4706,0.0,5.3,151.0,6.6,'11111222,11111222,11111222' 
TCOON,ioos:station:TCOON:003:1,2009-06-01T11:00:00Z,26.8015,-97.4706,0.0,5.5,143.0,6.3,'11111222,11111222,11111222' 
TCOON,ioos:station:TCOON:003:1,2009-06-01T12:00:00Z,26.8015,-97.4706,0.0,6.2,157.0,7.5,'11111222,11111222,11111222' 
TCOON,ioos:station:TCOON:003:1,2009-06-01T13:00:00Z,26.8015,-97.4706,0.0,6.5,177.0,7.8,'11111222,11111222,11111222' 
TCOON,ioos:station:TCOON:003:1,2009-06-01T14:00:00Z,26.8015,-97.4706,0.0,5.7,168.0,6.3,'11111222,11111222,11111222' 
TCOON,ioos:station:TCOON:003:1,2009-06-01T15:00:00Z,26.8015,-97.4706,0.0,4.4,169.0,5.2,'11111222,11111222,11111222' 
TCOON,ioos:station:TCOON:003:1,2009-06-01T16:00:00Z,26.8015,-97.4706,0.0,6.5,143.0,9.0,'11111222,11111222,11111222' 
TCOON,ioos:station:TCOON:003:1,2009-06-01T17:00:00Z,26.8015,-97.4706,0.0,6.3,138.0,7.4,'11111222,11111222,11111222' 
TCOON,ioos:station:TCOON:003:1,2009-06-01T18:00:00Z,26.8015,-97.4706,0.0,6.5,129.0,8.5,'11111222,11111222,11111222' 
TCOON,ioos:station:TCOON:003:1,2009-06-01T19:00:00Z,26.8015,-97.4706,0.0,7.6,124.0,8.8,'11111222,11111222,11111222' 
TCOON,ioos:station:TCOON:003:1,2009-06-01T20:00:00Z,26.8015,-97.4706,0.0,8.1,123.0,10.0,'11111222,11111222,11111222' 
TCOON,ioos:station:TCOON:003:1,2009-06-01T21:00:00Z,26.8015,-97.4706,0.0,9.2,127.0,10.7,'11111222,11111222,11111222' 
TCOON,ioos:station:TCOON:003:1,2009-06-01T22:00:00Z,26.8015,-97.4706,0.0,6.7,146.0,7.5,'11111222,11111222,11111222' 
TCOON,ioos:station:TCOON:003:1,2009-06-01T23:00:00Z,26.8015,-97.4706,0.0,9.2,136.0,10.3,'11111222,11111222,11111222' 
TCOON,ioos:station:TCOON:003:1,2009-06-02T00:00:00Z,26.8015,-97.4706,0.0,8.5,121.0,10.5,'11111222,11111222,11111222' 
TCOON,ioos:station:TCOON:003:1,2009-06-02T01:00:00Z,26.8015,-97.4706,0.0,8.7,119.0,10.3,'11111222,11111222,11111222' 
TCOON,ioos:station:TCOON:003:1,2009-06-02T02:00:00Z,26.8015,-97.4706,0.0,8.8,123.0,10.4,'11111222,11111222,11111222' 
TCOON,ioos:station:TCOON:003:1,2009-06-02T03:00:00Z,26.8015,-97.4706,0.0,7.4,136.0,9.0,'11111222,11111222,11111222' 
TCOON,ioos:station:TCOON:003:1,2009-06-02T04:00:00Z,26.8015,-97.4706,0.0,7.5,148.0,9.2,'11111222,11111222,11111222' 
TCOON,ioos:station:TCOON:003:1,2009-06-02T05:00:00Z,26.8015,-97.4706,0.0,7.3,146.0,8.2,'11111222,11111222,11111222' 
TCOON,ioos:station:TCOON:003:1,2009-06-02T06:00:00Z,26.8015,-97.4706,0.0,5.5,147.0,6.5,'11111222,11111222,11111222' 
TCOON,ioos:station:TCOON:003:1,2009-06-02T07:00:00Z,26.8015,-97.4706,0.0,5.2,143.0,6.0,'11111222,11111222,11111222' 
TCOON,ioos:station:TCOON:003:1,2009-06-02T08:00:00Z,26.8015,-97.4706,0.0,5.0,148.0,6.1,'11111222,11111222,11111222' 
TCOON,ioos:station:TCOON:003:1,2009-06-02T09:00:00Z,26.8015,-97.4706,0.0,6.2,149.0,7.1,'11111222,11111222,11111222' 
TCOON,ioos:station:TCOON:003:1,2009-06-02T10:00:00Z,26.8015,-97.4706,0.0,7.0,144.0,8.8,'11111222,11111222,11111222' 
TCOON,ioos:station:TCOON:003:1,2009-06-02T11:00:00Z,26.8015,-97.4706,0.0,6.8,149.0,7.9,'11111222,11111222,11111222' 
TCOON,ioos:station:TCOON:003:1,2009-06-02T12:00:00Z,26.8015,-97.4706,0.0,6.9,155.0,7.6,'11111222,11111222,11111222' 
TCOON,ioos:station:TCOON:003:1,2009-06-02T13:00:00Z,26.8015,-97.4706,0.0,6.3,162.0,7.0,'11111222,11111222,11111222' 
TCOON,ioos:station:TCOON:003:1,2009-06-02T14:00:00Z,26.8015,-97.4706,0.0,6.9,168.0,8.4,'11111222,11111222,11111222' 
TCOON,ioos:station:TCOON:003:1,2009-06-02T15:00:00Z,26.8015,-97.4706,0.0,8.4,176.0,9.2,'11111222,11111222,11111222' 
TCOON,ioos:station:TCOON:003:1,2009-06-02T16:00:00Z,26.8015,-97.4706,0.0,7.5,176.0,9.1,'11111222,11111222,11111222' 
TCOON,ioos:station:TCOON:003:1,2009-06-02T17:00:00Z,26.8015,-97.4706,0.0,7.2,162.0,8.0,'11111222,11111222,11111222' 
TCOON,ioos:station:TCOON:003:1,2009-06-02T18:00:00Z,26.8015,-97.4706,0.0,8.8,167.0,10.0,'11111222,11111222,11111222' 
TCOON,ioos:station:TCOON:003:1,2009-06-02T19:00:00Z,26.8015,-97.4706,0.0,8.7,165.0,10.5,'11111222,11111222,11111222' 
TCOON,ioos:station:TCOON:003:1,2009-06-02T20:00:00Z,26.8015,-97.4706,0.0,9.3,169.0,10.7,'11111222,11111222,11111222' 
TCOON,ioos:station:TCOON:003:1,2009-06-02T21:00:00Z,26.8015,-97.4706,0.0,6.4,165.0,7.7,'11111222,11111222,11111222' 
TCOON,ioos:station:TCOON:003:1,2009-06-02T22:00:00Z,26.8015,-97.4706,0.0,9.7,141.0,11.1,'11111222,11111222,11111222' 
TCOON,ioos:station:TCOON:003:1,2009-06-02T23:00:00Z,26.8015,-97.4706,0.0,6.4,134.0,7.2,'11111222,11111222,11111222' 
TCOON,ioos:station:TCOON:003:1,2009-06-03T00:00:00Z,26.8015,-97.4706,0.0,6.8,132.0,7.9,'11111222,11111222,11111222' 
TCOON,ioos:station:TCOON:003:1,2009-06-03T01:00:00Z,26.8015,-97.4706,0.0,8.8,130.0,10.1,'11111222,11111222,11111222' 
TCOON,ioos:station:TCOON:003:1,2009-06-03T02:00:00Z,26.8015,-97.4706,0.0,9.1,129.0,10.4,'11111222,11111222,11111222' 
TCOON,ioos:station:TCOON:003:1,2009-06-03T03:00:00Z,26.8015,-97.4706,0.0,7.6,146.0,8.7,'11111222,11111222,11111222' 
TCOON,ioos:station:TCOON:003:1,2009-06-03T04:00:00Z,26.8015,-97.4706,0.0,6.7,150.0,7.7,'11111222,11111222,11111222' 
TCOON,ioos:station:TCOON:003:1,2009-06-03T05:00:00Z,26.8015,-97.4706,0.0,6.8,163.0,7.9,'11111222,11111222,11111222' 
TCOON,ioos:station:TCOON:003:1,2009-06-03T06:00:00Z,26.8015,-97.4706,0.0,6.7,156.0,7.8,'11111222,11111222,11111222' 
TCOON,ioos:station:TCOON:003:1,2009-06-03T07:00:00Z,26.8015,-97.4706,0.0,5.5,162.0,6.5,'11111222,11111222,11111222' 
TCOON,ioos:station:TCOON:003:1,2009-06-03T08:00:00Z,26.8015,-97.4706,0.0,4.1,196.0,4.8,'11111222,11111222,11111222' 
TCOON,ioos:station:TCOON:003:1,2009-06-03T09:00:00Z,26.8015,-97.4706,0.0,3.0,216.0,3.4,'11111222,11111222,11111222' 
TCOON,ioos:station:TCOON:003:1,2009-06-03T10:00:00Z,26.8015,-97.4706,0.0,1.8,269.0,2.2,'11111222,11111222,11111222' 
TCOON,ioos:station:TCOON:003:1,2009-06-03T11:00:00Z,26.8015,-97.4706,0.0,1.1,215.0,1.5,'11111222,11111222,11111222' 
TCOON,ioos:station:TCOON:003:1,2009-06-03T12:00:00Z,26.8015,-97.4706,0.0,1.7,236.0,2.1,'11111222,11111222,11111222' 
TCOON,ioos:station:TCOON:003:1,2009-06-03T13:00:00Z,26.8015,-97.4706,0.0,1.9,176.0,2.8,'11111222,11111222,11111222' 
TCOON,ioos:station:TCOON:003:1,2009-06-03T14:00:00Z,26.8015,-97.4706,0.0,0.8,163.0,0.9,'11111222,11111222,11111222' 
TCOON,ioos:station:TCOON:003:1,2009-06-03T15:00:00Z,26.8015,-97.4706,0.0,3.0,141.0,3.6,'11111222,11111222,11111222' 
TCOON,ioos:station:TCOON:003:1,2009-06-03T16:00:00Z,26.8015,-97.4706,0.0,4.8,169.0,5.5,'11111222,11111222,11111222' 
TCOON,ioos:station:TCOON:003:1,2009-06-03T17:00:00Z,26.8015,-97.4706,0.0,3.9,136.0,4.9,'11111222,11111222,11111222' 
TCOON,ioos:station:TCOON:003:1,2009-06-03T18:00:00Z,26.8015,-97.4706,0.0,6.8,116.0,9.3,'11111222,11111222,11111222' 
TCOON,ioos:station:TCOON:003:1,2009-06-03T19:00:00Z,26.8015,-97.4706,0.0,6.3,122.0,7.5,'11111222,11111222,11111222' 
TCOON,ioos:station:TCOON:003:1,2009-06-03T20:00:00Z,26.8015,-97.4706,0.0,5.8,132.0,6.7,'11111222,11111222,11111222' 
TCOON,ioos:station:TCOON:003:1,2009-06-03T21:00:00Z,26.8015,-97.4706,0.0,6.3,140.0,7.4,'11111222,11111222,11111222' 
TCOON,ioos:station:TCOON:003:1,2009-06-03T22:00:00Z,26.8015,-97.4706,0.0,6.0,133.0,7.1,'11111222,11111222,11111222' 
TCOON,ioos:station:TCOON:003:1,2009-06-03T23:00:00Z,26.8015,-97.4706,0.0,6.8,131.0,7.8,'11111222,11111222,11111222' 
TCOON,ioos:station:TCOON:003:1,2009-06-04T00:00:00Z,26.8015,-97.4706,0.0,6.2,171.0,7.2,'11111222,11111222,11111222' 
TCOON,ioos:station:TCOON:003:1,2009-06-04T01:00:00Z,26.8015,-97.4706,0.0,1.5,121.0,1.8,'11111222,11111222,11111222' 
TCOON,ioos:station:TCOON:003:1,2009-06-04T02:00:00Z,26.8015,-97.4706,0.0,5.8,161.0,6.9,'11111222,11111222,11111222' 
TCOON,ioos:station:TCOON:003:1,2009-06-04T03:00:00Z,26.8015,-97.4706,0.0,3.2,230.0,3.6,'11111222,11111222,11111222' 
TCOON,ioos:station:TCOON:003:1,2009-06-04T04:00:00Z,26.8015,-97.4706,0.0,3.1,240.0,3.5,'11111222,11111222,11111222' 
TCOON,ioos:station:TCOON:003:1,2009-06-04T05:00:00Z,26.8015,-97.4706,0.0,5.3,233.0,6.3,'11111222,11111222,11111222' 
TCOON,ioos:station:TCOON:003:1,2009-06-04T06:00:00Z,26.8015,-97.4706,0.0,4.1,175.0,4.7,'11111222,11111222,11111222' 
TCOON,ioos:station:TCOON:003:1,2009-06-04T07:00:00Z,26.8015,-97.4706,0.0,4.9,213.0,5.9,'11111222,11111222,11111222' 
TCOON,ioos:station:TCOON:003:1,2009-06-04T08:00:00Z,26.8015,-97.4706,0.0,2.7,224.0,3.2,'11111222,11111222,11111222' 
TCOON,ioos:station:TCOON:003:1,2009-06-04T09:00:00Z,26.8015,-97.4706,0.0,2.2,270.0,2.7,'11111222,11111222,11111222' 
TCOON,ioos:station:TCOON:003:1,2009-06-04T10:00:00Z,26.8015,-97.4706,0.0,1.9,276.0,2.3,'11111222,11111222,11111222' 
TCOON,ioos:station:TCOON:003:1,2009-06-04T11:00:00Z,26.8015,-97.4706,0.0,3.3,296.0,3.9,'11111222,11111222,11111222' 
TCOON,ioos:station:TCOON:003:1,2009-06-04T12:00:00Z,26.8015,-97.4706,0.0,4.6,330.0,5.1,'11111222,11111222,11111222' 
TCOON,ioos:station:TCOON:003:1,2009-06-04T13:00:00Z,26.8015,-97.4706,0.0,5.7,357.0,6.7,'11111222,11111222,11111222' 
TCOON,ioos:station:TCOON:003:1,2009-06-04T14:00:00Z,26.8015,-97.4706,0.0,3.7,357.0,4.3,'11111222,11111222,11111222' 
TCOON,ioos:station:TCOON:003:1,2009-06-04T15:00:00Z,26.8015,-97.4706,0.0,4.8,7.0,5.9,'11111222,11111222,11111222' 
TCOON,ioos:station:TCOON:003:1,2009-06-04T16:00:00Z,26.8015,-97.4706,0.0,4.2,15.0,7.3,'11111222,11111222,11111222' 
TCOON,ioos:station:TCOON:003:1,2009-06-04T17:00:00Z,26.8015,-97.4706,0.0,6.9,59.0,8.4,'11111222,11111222,11111222' 
TCOON,ioos:station:TCOON:003:1,2009-06-04T18:00:00Z,26.8015,-97.4706,0.0,5.7,56.0,7.5,'11111222,11111222,11111222' 
TCOON,ioos:station:TCOON:003:1,2009-06-04T19:00:00Z,26.8015,-97.4706,0.0,5.9,90.0,7.7,'11111222,11111222,11111222' 
TCOON,ioos:station:TCOON:003:1,2009-06-04T20:00:00Z,26.8015,-97.4706,0.0,6.1,85.0,8.1,'11111222,11111222,11111222' 
TCOON,ioos:station:TCOON:003:1,2009-06-04T21:00:00Z,26.8015,-97.4706,0.0,5.7,96.0,7.0,'11111222,11111222,11111222' 
TCOON,ioos:station:TCOON:003:1,2009-06-04T22:00:00Z,26.8015,-97.4706,0.0,4.2,107.0,5.4,'11111222,11111222,11111222' 
TCOON,ioos:station:TCOON:003:1,2009-06-04T23:00:00Z,26.8015,-97.4706,0.0,4.2,110.0,5.2,'11111222,11111222,11111222' 
TCOON,ioos:station:TCOON:003:1,2009-06-05T00:00:00Z,26.8015,-97.4706,0.0,3.8,129.0,5.1,'11111222,11111222,11111222' 
TCOON,ioos:station:TCOON:003:1,2009-06-05T01:00:00Z,26.8015,-97.4706,0.0,4.1,131.0,4.6,'11111222,11111222,11111222' 
TCOON,ioos:station:TCOON:003:1,2009-06-05T02:00:00Z,26.8015,-97.4706,0.0,4.5,138.0,5.1,'11111222,11111222,11111222' 
TCOON,ioos:station:TCOON:003:1,2009-06-05T03:00:00Z,26.8015,-97.4706,0.0,4.8,147.0,5.2,'11111222,11111222,11111222' 
TCOON,ioos:station:TCOON:003:1,2009-06-05T04:00:00Z,26.8015,-97.4706,0.0,3.8,155.0,4.2,'11111222,11111222,11111222' 
TCOON,ioos:station:TCOON:003:1,2009-06-05T05:00:00Z,26.8015,-97.4706,0.0,3.3,154.0,3.8,'11111222,11111222,11111222' 
TCOON,ioos:station:TCOON:003:1,2009-06-05T06:00:00Z,26.8015,-97.4706,0.0,2.8,163.0,3.1,'11111222,11111222,11111222' 
TCOON,ioos:station:TCOON:003:1,2009-06-05T07:00:00Z,26.8015,-97.4706,0.0,2.2,249.0,2.5,'11111222,11111222,11111222' 
TCOON,ioos:station:TCOON:003:1,2009-06-05T08:00:00Z,26.8015,-97.4706,0.0,2.6,250.0,3.0,'11111222,11111222,11111222' 
TCOON,ioos:station:TCOON:003:1,2009-06-05T09:00:00Z,26.8015,-97.4706,0.0,3.0,254.0,3.5,'11111222,11111222,11111222' 
TCOON,ioos:station:TCOON:003:1,2009-06-05T10:00:00Z,26.8015,-97.4706,0.0,1.6,277.0,2.0,'11111222,11111222,11111222' 
TCOON,ioos:station:TCOON:003:1,2009-06-05T11:00:00Z,26.8015,-97.4706,0.0,0.7,314.0,1.1,'11111222,11111222,11111222' 
TCOON,ioos:station:TCOON:003:1,2009-06-05T12:00:00Z,26.8015,-97.4706,0.0,1.1,8.0,1.3,'11111222,11111222,11111222' 
TCOON,ioos:station:TCOON:003:1,2009-06-05T13:00:00Z,26.8015,-97.4706,0.0,0.4,354.0,0.6,'11111222,11111222,11111222' 
TCOON,ioos:station:TCOON:003:1,2009-06-05T14:00:00Z,26.8015,-97.4706,0.0,1.0,219.0,1.4,'11111222,11111222,11111222' 
TCOON,ioos:station:TCOON:003:1,2009-06-05T15:00:00Z,26.8015,-97.4706,0.0,2.4,198.0,2.8,'11111222,11111222,11111222' 
TCOON,ioos:station:TCOON:003:1,2009-06-05T16:00:00Z,26.8015,-97.4706,0.0,3.0,190.0,3.3,'11111222,11111222,11111222' 
TCOON,ioos:station:TCOON:003:1,2009-06-05T17:00:00Z,26.8015,-97.4706,0.0,2.5,194.0,2.9,'11111222,11111222,11111222' 
TCOON,ioos:station:TCOON:003:1,2009-06-05T18:00:00Z,26.8015,-97.4706,0.0,3.2,131.0,3.9,'11111222,11111222,11111222' 
TCOON,ioos:station:TCOON:003:1,2009-06-05T19:00:00Z,26.8015,-97.4706,0.0,5.9,105.0,6.9,'11111222,11111222,11111222' 
TCOON,ioos:station:TCOON:003:1,2009-06-05T20:00:00Z,26.8015,-97.4706,0.0,5.3,112.0,6.4,'11111222,11111222,11111222' 
TCOON,ioos:station:TCOON:003:1,2009-06-05T21:00:00Z,26.8015,-97.4706,0.0,7.4,99.0,9.1,'11111222,11111222,11111222' 
TCOON,ioos:station:TCOON:003:1,2009-06-05T22:00:00Z,26.8015,-97.4706,0.0,7.5,107.0,9.0,'11111222,11111222,11111222' 
TCOON,ioos:station:TCOON:003:1,2009-06-05T23:00:00Z,26.8015,-97.4706,0.0,7.5,110.0,9.4,'11111222,11111222,11111222' 
TCOON,ioos:station:TCOON:003:1,2009-06-06T00:00:00Z,26.8015,-97.4706,0.0,5.9,107.0,7.0,'11111222,11111222,11111222' 
TCOON,ioos:station:TCOON:003:1,2009-06-06T01:00:00Z,26.8015,-97.4706,0.0,6.3,129.0,7.2,'11111222,11111222,11111222' 
TCOON,ioos:station:TCOON:003:1,2009-06-06T02:00:00Z,26.8015,-97.4706,0.0,6.1,123.0,7.2,'11111222,11111222,11111222' 
TCOON,ioos:station:TCOON:003:1,2009-06-06T03:00:00Z,26.8015,-97.4706,0.0,6.4,143.0,7.3,'11111222,11111222,11111222' 
TCOON,ioos:station:TCOON:003:1,2009-06-06T04:00:00Z,26.8015,-97.4706,0.0,6.9,155.0,7.8,'11111222,11111222,11111222' 
TCOON,ioos:station:TCOON:003:1,2009-06-06T05:00:00Z,26.8015,-97.4706,0.0,7.0,159.0,8.0,'11111222,11111222,11111222' 
TCOON,ioos:station:TCOON:003:1,2009-06-06T06:00:00Z,26.8015,-97.4706,0.0,7.0,164.0,8.1,'11111222,11111222,11111222' 
TCOON,ioos:station:TCOON:003:1,2009-06-06T07:00:00Z,26.8015,-97.4706,0.0,6.4,168.0,7.0,'11111222,11111222,11111222' 
TCOON,ioos:station:TCOON:003:1,2009-06-06T08:00:00Z,26.8015,-97.4706,0.0,4.7,165.0,5.5,'11111222,11111222,11111222' 
TCOON,ioos:station:TCOON:003:1,2009-06-06T09:00:00Z,26.8015,-97.4706,0.0,4.7,160.0,5.4,'11111222,11111222,11111222' 
TCOON,ioos:station:TCOON:003:1,2009-06-06T10:00:00Z,26.8015,-97.4706,0.0,4.5,163.0,5.0,'11111222,11111222,11111222' 
TCOON,ioos:station:TCOON:003:1,2009-06-06T11:00:00Z,26.8015,-97.4706,0.0,5.2,158.0,5.9,'11111222,11111222,11111222' 
TCOON,ioos:station:TCOON:003:1,2009-06-06T12:00:00Z,26.8015,-97.4706,0.0,5.1,162.0,5.8,'11111222,11111222,11111222' 
TCOON,ioos:station:TCOON:003:1,2009-06-06T13:00:00Z,26.8015,-97.4706,0.0,4.8,158.0,5.4,'11111222,11111222,11111222' 
TCOON,ioos:station:TCOON:003:1,2009-06-06T14:00:00Z,26.8015,-97.4706,0.0,6.1,129.0,6.6,'11111222,11111222,11111222' 
TCOON,ioos:station:TCOON:003:1,2009-06-06T15:00:00Z,26.8015,-97.4706,0.0,5.3,147.0,6.2,'11111222,11111222,11111222' 
TCOON,ioos:station:TCOON:003:1,2009-06-06T16:00:00Z,26.8015,-97.4706,0.0,6.6,135.0,7.9,'11111222,11111222,11111222' 
TCOON,ioos:station:TCOON:003:1,2009-06-06T17:00:00Z,26.8015,-97.4706,0.0,5.3,138.0,6.6,'11111222,11111222,11111222' 
TCOON,ioos:station:TCOON:003:1,2009-06-06T18:00:00Z,26.8015,-97.4706,0.0,5.8,131.0,7.6,'11111222,11111222,11111222' 
TCOON,ioos:station:TCOON:003:1,2009-06-06T19:00:00Z,26.8015,-97.4706,0.0,6.8,139.0,9.0,'11111222,11111222,11111222' 
TCOON,ioos:station:TCOON:003:1,2009-06-06T20:00:00Z,26.8015,-97.4706,0.0,6.4,134.0,7.7,'11111222,11111222,11111222' 
TCOON,ioos:station:TCOON:003:1,2009-06-06T21:00:00Z,26.8015,-97.4706,0.0,6.5,145.0,7.7,'11111222,11111222,11111222' 
TCOON,ioos:station:TCOON:003:1,2009-06-06T22:00:00Z,26.8015,-97.4706,0.0,7.3,131.0,8.1,'11111222,11111222,11111222' 
TCOON,ioos:station:TCOON:003:1,2009-06-06T23:00:00Z,26.8015,-97.4706,0.0,7.5,135.0,8.9,'11111222,11111222,11111222' 
TCOON,ioos:station:TCOON:003:1,2009-06-07T00:00:00Z,26.8015,-97.4706,0.0,7.7,137.0,9.5,'11111222,11111222,11111222' 
TCOON,ioos:station:TCOON:003:1,2009-06-07T01:00:00Z,26.8015,-97.4706,0.0,6.9,148.0,8.2,'11111222,11111222,11111222' 
TCOON,ioos:station:TCOON:003:1,2009-06-07T02:00:00Z,26.8015,-97.4706,0.0,7.4,152.0,8.5,'11111222,11111222,11111222' 
TCOON,ioos:station:TCOON:003:1,2009-06-07T03:00:00Z,26.8015,-97.4706,0.0,7.7,162.0,9.0,'11111222,11111222,11111222' 
TCOON,ioos:station:TCOON:003:1,2009-06-07T04:00:00Z,26.8015,-97.4706,0.0,7.0,162.0,7.8,'11111222,11111222,11111222' 
TCOON,ioos:station:TCOON:003:1,2009-06-07T05:00:00Z,26.8015,-97.4706,0.0,7.0,157.0,7.8,'11111222,11111222,11111222' 
TCOON,ioos:station:TCOON:003:1,2009-06-07T06:00:00Z,26.8015,-97.4706,0.0,7.0,159.0,7.9,'11111222,11111222,11111222' 
TCOON,ioos:station:TCOON:003:1,2009-06-07T07:00:00Z,26.8015,-97.4706,0.0,8.2,163.0,9.1,'11111222,11111222,11111222' 
TCOON,ioos:station:TCOON:003:1,2009-06-07T08:00:00Z,26.8015,-97.4706,0.0,7.3,169.0,8.5,'11111222,11111222,11111222' 
TCOON,ioos:station:TCOON:003:1,2009-06-07T09:00:00Z,26.8015,-97.4706,0.0,6.9,156.0,8.1,'11111222,11111222,11111222' 
TCOON,ioos:station:TCOON:003:1,2009-06-07T10:00:00Z,26.8015,-97.4706,0.0,7.4,161.0,8.8,'11111222,11111222,11111222' 
TCOON,ioos:station:TCOON:003:1,2009-06-07T11:00:00Z,26.8015,-97.4706,0.0,6.8,162.0,8.7,'11111222,11111222,11111222' 
TCOON,ioos:station:TCOON:003:1,2009-06-07T12:00:00Z,26.8015,-97.4706,0.0,6.5,163.0,7.3,'11111222,11111222,11111222' 
TCOON,ioos:station:TCOON:003:1,2009-06-07T13:00:00Z,26.8015,-97.4706,0.0,8.2,179.0,9.2,'11111222,11111222,11111222' 
TCOON,ioos:station:TCOON:003:1,2009-06-07T14:00:00Z,26.8015,-97.4706,0.0,7.4,177.0,8.3,'11111222,11111222,11111222' 
TCOON,ioos:station:TCOON:003:1,2009-06-07T15:00:00Z,26.8015,-97.4706,0.0,7.9,167.0,8.8,'11111222,11111222,11111222' 
TCOON,ioos:station:TCOON:003:1,2009-06-07T16:00:00Z,26.8015,-97.4706,0.0,7.7,164.0,8.5,'11111222,11111222,11111222' 
TCOON,ioos:station:TCOON:003:1,2009-06-07T17:00:00Z,26.8015,-97.4706,0.0,7.5,170.0,8.5,'11111222,11111222,11111222' 
TCOON,ioos:station:TCOON:003:1,2009-06-07T18:00:00Z,26.8015,-97.4706,0.0,9.5,145.0,11.6,'11111222,11111222,11111222' 
TCOON,ioos:station:TCOON:003:1,2009-06-07T19:00:00Z,26.8015,-97.4706,0.0,9.1,141.0,11.4,'11111222,11111222,11111222' 
TCOON,ioos:station:TCOON:003:1,2009-06-07T20:00:00Z,26.8015,-97.4706,0.0,10.0,143.0,11.9,'11111222,11111222,11111222' 
TCOON,ioos:station:TCOON:003:1,2009-06-07T21:00:00Z,26.8015,-97.4706,0.0,10.5,148.0,12.3,'11111222,11111222,11111222' 
TCOON,ioos:station:TCOON:003:1,2009-06-07T22:00:00Z,26.8015,-97.4706,0.0,9.9,144.0,11.8,'11111222,11111222,11111222' 
TCOON,ioos:station:TCOON:003:1,2009-06-07T23:00:00Z,26.8015,-97.4706,0.0,9.6,145.0,11.2,'11111222,11111222,11111222' 
TCOON,ioos:station:TCOON:003:1,2009-06-08T00:00:00Z,26.8015,-97.4706,0.0,9.7,146.0,11.7,'11111222,11111222,11111222' 
TCOON,ioos:station:TCOON:003:1,2009-06-08T01:00:00Z,26.8015,-97.4706,0.0,9.4,146.0,10.8,'11111222,11111222,11111222' 
TCOON,ioos:station:TCOON:003:1,2009-06-08T02:00:00Z,26.8015,-97.4706,0.0,8.9,160.0,10.1,'11111222,11111222,11111222' 
TCOON,ioos:station:TCOON:003:1,2009-06-08T03:00:00Z,26.8015,-97.4706,0.0,9.0,161.0,10.3,'11111222,11111222,11111222' 
TCOON,ioos:station:TCOON:003:1,2009-06-08T04:00:00Z,26.8015,-97.4706,0.0,8.5,159.0,9.6,'11111222,11111222,11111222' 
TCOON,ioos:station:TCOON:003:1,2009-06-08T05:00:00Z,26.8015,-97.4706,0.0,8.8,158.0,10.1,'11111222,11111222,11111222' 
TCOON,ioos:station:TCOON:003:1,2009-06-08T06:00:00Z,26.8015,-97.4706,0.0,7.5,158.0,9.1,'11111222,11111222,11111222' 
TCOON,ioos:station:TCOON:003:1,2009-06-08T07:00:00Z,26.8015,-97.4706,0.0,8.1,159.0,9.8,'11111222,11111222,11111222' 
TCOON,ioos:station:TCOON:003:1,2009-06-08T08:00:00Z,26.8015,-97.4706,0.0,8.6,160.0,9.6,'11111222,11111222,11111222' 
TCOON,ioos:station:TCOON:003:1,2009-06-08T09:00:00Z,26.8015,-97.4706,0.0,7.8,167.0,9.4,'11111222,11111222,11111222' 
TCOON,ioos:station:TCOON:003:1,2009-06-08T10:00:00Z,26.8015,-97.4706,0.0,7.3,162.0,8.3,'11111222,11111222,11111222' 
TCOON,ioos:station:TCOON:003:1,2009-06-08T11:00:00Z,26.8015,-97.4706,0.0,7.5,163.0,8.7,'11111222,11111222,11111222' 
TCOON,ioos:station:TCOON:003:1,2009-06-08T12:00:00Z,26.8015,-97.4706,0.0,6.7,160.0,7.5,'11111222,11111222,11111222' 
TCOON,ioos:station:TCOON:003:1,2009-06-08T13:00:00Z,26.8015,-97.4706,0.0,8.0,169.0,9.3,'11111222,11111222,11111222' 
TCOON,ioos:station:TCOON:003:1,2009-06-08T14:00:00Z,26.8015,-97.4706,0.0,9.0,175.0,9.8,'11111222,11111222,11111222' 
TCOON,ioos:station:TCOON:003:1,2009-06-08T15:00:00Z,26.8015,-97.4706,0.0,8.3,171.0,9.5,'11111222,11111222,11111222' 
TCOON,ioos:station:TCOON:003:1,2009-06-08T16:00:00Z,26.8015,-97.4706,0.0,8.3,166.0,9.8,'11111222,11111222,11111222' 
TCOON,ioos:station:TCOON:003:1,2009-06-08T17:00:00Z,26.8015,-97.4706,0.0,7.7,167.0,9.1,'11111222,11111222,11111222' 
TCOON,ioos:station:TCOON:003:1,2009-06-08T18:00:00Z,26.8015,-97.4706,0.0,9.1,154.0,11.4,'11111222,11111222,11111222' 
TCOON,ioos:station:TCOON:003:1,2009-06-08T19:00:00Z,26.8015,-97.4706,0.0,9.5,143.0,11.7,'11111222,11111222,11111222' 
TCOON,ioos:station:TCOON:003:1,2009-06-08T20:00:00Z,26.8015,-97.4706,0.0,9.1,138.0,10.9,'11111222,11111222,11111222' 
TCOON,ioos:station:TCOON:003:1,2009-06-08T21:00:00Z,26.8015,-97.4706,0.0,10.1,135.0,12.0,'11111222,11111222,11111222' 
TCOON,ioos:station:TCOON:003:1,2009-06-08T22:00:00Z,26.8015,-97.4706,0.0,9.5,145.0,11.6,'11111222,11111222,11111222' 
TCOON,ioos:station:TCOON:003:1,2009-06-08T23:00:00Z,26.8015,-97.4706,0.0,9.5,149.0,11.0,'11111222,11111222,11111222' 
TCOON,ioos:station:TCOON:003:1,2009-06-09T00:00:00Z,26.8015,-97.4706,0.0,9.0,150.0,10.3,'11111222,11111222,11111222' 
TCOON,ioos:station:TCOON:003:1,2009-06-09T01:00:00Z,26.8015,-97.4706,0.0,8.3,147.0,9.5,'11111222,11111222,11111222' 
TCOON,ioos:station:TCOON:003:1,2009-06-09T02:00:00Z,26.8015,-97.4706,0.0,8.2,152.0,9.8,'11111222,11111222,11111222' 
TCOON,ioos:station:TCOON:003:1,2009-06-09T03:00:00Z,26.8015,-97.4706,0.0,8.0,144.0,9.1,'11111222,11111222,11111222' 
TCOON,ioos:station:TCOON:003:1,2009-06-09T04:00:00Z,26.8015,-97.4706,0.0,8.0,143.0,9.4,'11111222,11111222,11111222' 
TCOON,ioos:station:TCOON:003:1,2009-06-09T05:00:00Z,26.8015,-97.4706,0.0,6.6,151.0,7.6,'11111222,11111222,11111222' 
TCOON,ioos:station:TCOON:003:1,2009-06-09T06:00:00Z,26.8015,-97.4706,0.0,6.5,148.0,8.4,'11111222,11111222,11111222' 
TCOON,ioos:station:TCOON:003:1,2009-06-09T07:00:00Z,26.8015,-97.4706,0.0,5.6,143.0,6.8,'11111222,11111222,11111222' 
TCOON,ioos:station:TCOON:003:1,2009-06-09T08:00:00Z,26.8015,-97.4706,0.0,5.8,149.0,7.1,'11111222,11111222,11111222' 
TCOON,ioos:station:TCOON:003:1,2009-06-09T09:00:00Z,26.8015,-97.4706,0.0,5.8,158.0,7.0,'11111222,11111222,11111222' 
TCOON,ioos:station:TCOON:003:1,2009-06-09T10:00:00Z,26.8015,-97.4706,0.0,6.9,163.0,8.2,'11111222,11111222,11111222' 
TCOON,ioos:station:TCOON:003:1,2009-06-09T11:00:00Z,26.8015,-97.4706,0.0,6.7,164.0,7.9,'11111222,11111222,11111222' 
TCOON,ioos:station:TCOON:003:1,2009-06-09T12:00:00Z,26.8015,-97.4706,0.0,7.4,169.0,9.0,'11111222,11111222,11111222' 